Time,TemperatureF,DewpointF,PressureIn,WindDirection,WindDirectionDegrees,WindSpeedMPH,WindSpeedGustMPH,Humidity,HourlyPrecipIn,Conditions,Clouds,dailyrainin,SoftwareType,DateUTC
2013-04-03 00:00:00,32.1,11.6,30.01,WNW,293,0.0,4.0,42,0.00,,CLR,0.00,VWS V14.01,2013-04-03 04:00:00,
2013-04-03 00:05:00,32.2,12.2,30.01,NW,308,1.0,5.0,43,0.00,,CLR,0.00,VWS V14.01,2013-04-03 04:05:00,
2013-04-03 00:10:00,32.1,11.6,30.02,NW,314,6.0,7.0,42,0.00,,CLR,0.00,VWS V14.01,2013-04-03 04:10:00,
2013-04-03 00:15:00,32.3,11.8,30.02,West,272,0.0,3.0,42,0.00,,CLR,0.00,VWS V14.01,2013-04-03 04:15:00,
2013-04-03 00:20:00,32.1,12.1,30.01,WNW,289,1.0,5.0,43,0.00,,CLR,0.00,VWS V14.01,2013-04-03 04:20:00,
2013-04-03 00:25:00,32.0,11.5,30.02,SW,223,2.0,5.0,42,0.00,,CLR,0.00,VWS V14.01,2013-04-03 04:25:00,
2013-04-03 00:30:00,32.0,11.5,30.01,NW,306,0.0,3.0,42,0.00,,CLR,0.00,VWS V14.01,2013-04-03 04:30:00,
2013-04-03 00:35:00,31.7,12.3,30.02,West,270,0.0,1.0,44,0.00,,CLR,0.00,VWS V14.01,2013-04-03 04:35:00,
2013-04-03 00:40:00,31.7,11.8,30.02,South,179,0.0,1.0,43,0.00,,CLR,0.00,VWS V14.01,2013-04-03 04:40:00,
2013-04-03 00:45:00,31.8,11.3,30.02,NW,315,0.0,7.0,42,0.00,,CLR,0.00,VWS V14.01,2013-04-03 04:45:00,
2013-04-03 00:50:00,31.8,11.9,30.02,SSW,212,0.0,1.0,43,0.00,,CLR,0.00,VWS V14.01,2013-04-03 04:50:00,
2013-04-03 00:55:00,31.7,11.2,30.02,WNW,296,0.0,2.0,42,0.00,,CLR,0.00,VWS V14.01,2013-04-03 04:55:00,
2013-04-03 01:00:00,31.4,11.5,30.02,NW,316,0.0,2.0,43,0.00,,CLR,0.00,VWS V14.01,2013-04-03 05:00:00,
2013-04-03 01:05:00,31.3,11.4,30.02,West,263,0.0,1.0,43,0.00,,CLR,0.00,VWS V14.01,2013-04-03 05:05:00,
2013-04-03 01:10:00,31.1,11.8,30.02,West,265,1.0,2.0,44,0.00,,CLR,0.00,VWS V14.01,2013-04-03 05:10:00,
2013-04-03 01:15:00,31.1,12.2,30.02,WSW,256,0.0,3.0,45,0.00,,CLR,0.00,VWS V14.01,2013-04-03 05:15:00,
2013-04-03 01:20:00,31.1,12.8,30.02,SSE,161,3.0,3.0,46,0.00,,CLR,0.00,VWS V14.01,2013-04-03 05:20:00,
2013-04-03 01:25:00,31.1,12.8,30.03,WSW,254,1.0,1.0,46,0.00,,CLR,0.00,VWS V14.01,2013-04-03 05:25:00,
2013-04-03 01:30:00,31.0,13.1,30.03,NNW,333,0.0,4.0,47,0.00,,CLR,0.00,VWS V14.01,2013-04-03 05:30:00,
2013-04-03 01:35:00,31.0,13.1,30.03,WNW,290,0.0,4.0,47,0.00,,CLR,0.00,VWS V14.01,2013-04-03 05:35:00,
2013-04-03 01:40:00,30.8,13.0,30.02,WSW,242,0.0,6.0,47,0.00,,CLR,0.00,VWS V14.01,2013-04-03 05:40:00,
2013-04-03 01:45:00,30.7,12.9,30.03,West,265,1.0,4.0,47,0.00,,CLR,0.00,VWS V14.01,2013-04-03 05:45:00,
2013-04-03 01:50:00,30.7,12.9,30.02,SW,236,2.0,4.0,47,0.00,,CLR,0.00,VWS V14.01,2013-04-03 05:50:00,
2013-04-03 01:55:00,30.7,12.9,30.02,West,280,0.0,5.0,47,0.00,,CLR,0.00,VWS V14.01,2013-04-03 05:55:00,
2013-04-03 02:00:00,30.7,12.9,30.02,WSW,258,3.0,3.0,47,0.00,,CLR,0.00,VWS V14.01,2013-04-03 06:00:00,
2013-04-03 02:05:00,30.7,12.9,30.03,SSW,194,0.0,7.0,47,0.00,,CLR,0.00,VWS V14.01,2013-04-03 06:05:00,
2013-04-03 02:10:00,30.5,12.7,30.02,WSW,246,1.0,3.0,47,0.00,,CLR,0.00,VWS V14.01,2013-04-03 06:10:00,
2013-04-03 02:15:00,30.5,13.2,30.02,WSW,253,4.0,4.0,48,0.00,,CLR,0.00,VWS V14.01,2013-04-03 06:15:00,
2013-04-03 02:20:00,30.4,13.1,30.02,WNW,282,0.0,0.0,48,0.00,,CLR,0.00,VWS V14.01,2013-04-03 06:20:00,
2013-04-03 02:25:00,30.3,13.0,30.02,WNW,301,1.0,6.0,48,0.00,,CLR,0.00,VWS V14.01,2013-04-03 06:25:00,
2013-04-03 02:30:00,30.3,13.0,30.02,WNW,286,0.0,7.0,48,0.00,,CLR,0.00,VWS V14.01,2013-04-03 06:30:00,
2013-04-03 02:35:00,30.1,12.8,30.02,WSW,238,1.0,4.0,48,0.00,,CLR,0.00,VWS V14.01,2013-04-03 06:35:00,
2013-04-03 02:40:00,30.1,13.7,30.01,SSW,208,0.0,2.0,50,0.00,,CLR,0.00,VWS V14.01,2013-04-03 06:40:00,
2013-04-03 02:45:00,30.1,13.7,30.01,WSW,246,0.0,3.0,50,0.00,,CLR,0.00,VWS V14.01,2013-04-03 06:45:00,
2013-04-03 02:50:00,30.1,13.7,30.01,NW,314,0.0,0.0,50,0.00,,CLR,0.00,VWS V14.01,2013-04-03 06:50:00,
2013-04-03 02:55:00,30.1,13.7,30.02,NW,315,0.0,2.0,50,0.00,,CLR,0.00,VWS V14.01,2013-04-03 06:55:00,
2013-04-03 03:00:00,29.8,14.3,30.01,WSW,251,2.0,2.0,52,0.00,,CLR,0.00,VWS V14.01,2013-04-03 07:00:00,
2013-04-03 03:05:00,29.7,14.2,30.02,WNW,285,0.0,5.0,52,0.00,,CLR,0.00,VWS V14.01,2013-04-03 07:05:00,
2013-04-03 03:10:00,29.6,13.7,30.01,WSW,254,0.0,1.0,51,0.00,,CLR,0.00,VWS V14.01,2013-04-03 07:10:00,
2013-04-03 03:15:00,29.7,13.8,30.02,NW,314,0.0,10.0,51,0.00,,CLR,0.00,VWS V14.01,2013-04-03 07:15:00,
2013-04-03 03:20:00,29.6,13.7,30.02,WNW,284,1.0,6.0,51,0.00,,CLR,0.00,VWS V14.01,2013-04-03 07:20:00,
2013-04-03 03:25:00,29.5,14.1,30.01,South,191,1.0,1.0,52,0.00,,CLR,0.00,VWS V14.01,2013-04-03 07:25:00,
2013-04-03 03:30:00,29.5,14.5,30.02,North,2,0.0,4.0,53,0.00,,CLR,0.00,VWS V14.01,2013-04-03 07:30:00,
2013-04-03 03:35:00,29.5,14.1,30.01,NW,325,0.0,0.0,52,0.00,,CLR,0.00,VWS V14.01,2013-04-03 07:35:00,
2013-04-03 03:40:00,29.5,14.5,30.01,NNW,327,1.0,2.0,53,0.00,,CLR,0.00,VWS V14.01,2013-04-03 07:40:00,
2013-04-03 03:45:00,29.5,14.5,30.02,NNW,335,0.0,4.0,53,0.00,,CLR,0.00,VWS V14.01,2013-04-03 07:45:00,
2013-04-03 03:50:00,29.5,14.5,30.01,WSW,257,0.0,5.0,53,0.00,,CLR,0.00,VWS V14.01,2013-04-03 07:50:00,
2013-04-03 03:55:00,29.6,14.6,30.02,North,1,7.0,10.0,53,0.00,,CLR,0.00,VWS V14.01,2013-04-03 07:55:00,
2013-04-03 04:00:00,29.7,15.1,30.02,NNW,334,0.0,2.0,54,0.00,,CLR,0.00,VWS V14.01,2013-04-03 08:00:00,
2013-04-03 04:05:00,29.5,14.9,30.02,WNW,298,1.0,8.0,54,0.00,,CLR,0.00,VWS V14.01,2013-04-03 08:05:00,
2013-04-03 04:10:00,29.4,14.8,30.02,West,265,0.0,1.0,54,0.00,,CLR,0.00,VWS V14.01,2013-04-03 08:10:00,
2013-04-03 04:15:00,29.2,15.1,30.02,NNW,338,0.0,7.0,55,0.00,,CLR,0.00,VWS V14.01,2013-04-03 08:15:00,
2013-04-03 04:20:00,29.2,14.6,30.02,NW,306,0.0,2.0,54,0.00,,CLR,0.00,VWS V14.01,2013-04-03 08:20:00,
2013-04-03 04:25:00,29.2,15.5,30.02,NW,320,0.0,1.0,56,0.00,,CLR,0.00,VWS V14.01,2013-04-03 08:25:00,
2013-04-03 04:30:00,29.1,15.4,30.02,WSW,251,0.0,1.0,56,0.00,,CLR,0.00,VWS V14.01,2013-04-03 08:30:00,
2013-04-03 04:35:00,28.9,15.2,30.03,WSW,244,0.0,4.0,56,0.00,,CLR,0.00,VWS V14.01,2013-04-03 08:35:00,
2013-04-03 04:40:00,28.8,15.1,30.03,NW,314,0.0,1.0,56,0.00,,CLR,0.00,VWS V14.01,2013-04-03 08:40:00,
2013-04-03 04:45:00,28.8,15.1,30.03,NW,312,0.0,0.0,56,0.00,,CLR,0.00,VWS V14.01,2013-04-03 08:45:00,
2013-04-03 04:50:00,28.6,15.3,30.03,WSW,244,0.0,0.0,57,0.00,,CLR,0.00,VWS V14.01,2013-04-03 08:50:00,
2013-04-03 04:55:00,28.5,15.6,30.03,SW,232,0.0,0.0,58,0.00,,CLR,0.00,VWS V14.01,2013-04-03 08:55:00,
2013-04-03 05:00:00,28.3,15.4,30.03,SW,232,0.0,0.0,58,0.00,,CLR,0.00,VWS V14.01,2013-04-03 09:00:00,
2013-04-03 05:05:00,28.3,15.4,30.02,SW,216,0.0,2.0,58,0.00,,CLR,0.00,VWS V14.01,2013-04-03 09:05:00,
2013-04-03 05:10:00,28.3,15.8,30.03,WNW,288,0.0,1.0,59,0.00,,CLR,0.00,VWS V14.01,2013-04-03 09:10:00,
2013-04-03 05:15:00,28.3,15.8,30.02,West,269,0.0,1.0,59,0.00,,CLR,0.00,VWS V14.01,2013-04-03 09:15:00,
2013-04-03 05:20:00,28.2,15.7,30.03,ESE,117,0.0,2.0,59,0.00,,CLR,0.00,VWS V14.01,2013-04-03 09:20:00,
2013-04-03 05:25:00,28.2,16.1,30.03,SSW,210,0.0,0.0,60,0.00,,CLR,0.00,VWS V14.01,2013-04-03 09:25:00,
2013-04-03 05:30:00,28.0,15.9,30.03,WNW,293,0.0,5.0,60,0.00,,CLR,0.00,VWS V14.01,2013-04-03 09:30:00,
2013-04-03 05:35:00,28.0,15.9,30.04,West,276,0.0,0.0,60,0.00,,CLR,0.00,VWS V14.01,2013-04-03 09:35:00,
2013-04-03 05:40:00,28.1,16.0,30.04,NW,311,0.0,0.0,60,0.00,,CLR,0.00,VWS V14.01,2013-04-03 09:40:00,
2013-04-03 05:45:00,28.0,16.3,30.04,West,262,3.0,4.0,61,0.00,,CLR,0.00,VWS V14.01,2013-04-03 09:45:00,
2013-04-03 05:50:00,27.9,16.2,30.04,WNW,288,0.0,0.0,61,0.00,,CLR,0.00,VWS V14.01,2013-04-03 09:50:00,
2013-04-03 05:55:00,27.9,16.2,30.04,West,264,0.0,3.0,61,0.00,,CLR,0.00,VWS V14.01,2013-04-03 09:55:00,
2013-04-03 06:00:00,27.9,16.2,30.04,West,265,2.0,2.0,61,0.00,,CLR,0.00,VWS V14.01,2013-04-03 10:00:00,
2013-04-03 06:05:00,27.9,16.2,30.04,West,268,0.0,1.0,61,0.00,,CLR,0.00,VWS V14.01,2013-04-03 10:05:00,
2013-04-03 06:10:00,27.7,16.0,30.05,SW,235,0.0,1.0,61,0.00,,CLR,0.00,VWS V14.01,2013-04-03 10:10:00,
2013-04-03 06:15:00,27.7,16.0,30.05,West,261,0.0,5.0,61,0.00,,CLR,0.00,VWS V14.01,2013-04-03 10:15:00,
2013-04-03 06:20:00,27.7,16.4,30.05,WSW,257,1.0,6.0,62,0.00,,CLR,0.00,VWS V14.01,2013-04-03 10:20:00,
2013-04-03 06:25:00,27.8,16.5,30.05,SW,230,6.0,8.0,62,0.00,,CLR,0.00,VWS V14.01,2013-04-03 10:25:00,
2013-04-03 06:30:00,27.8,16.1,30.05,WSW,252,2.0,6.0,61,0.00,,CLR,0.00,VWS V14.01,2013-04-03 10:30:00,
2013-04-03 06:35:00,27.8,16.5,30.05,South,180,0.0,1.0,62,0.00,,CLR,0.00,VWS V14.01,2013-04-03 10:35:00,
2013-04-03 06:40:00,27.8,16.5,30.05,West,273,0.0,3.0,62,0.00,,CLR,0.00,VWS V14.01,2013-04-03 10:40:00,
2013-04-03 06:45:00,27.8,16.5,30.05,NNW,338,0.0,2.0,62,0.00,,CLR,0.00,VWS V14.01,2013-04-03 10:45:00,
2013-04-03 06:50:00,27.8,16.5,30.06,NW,305,1.0,2.0,62,0.00,,CLR,0.00,VWS V14.01,2013-04-03 10:50:00,
2013-04-03 06:55:00,27.8,16.5,30.06,SW,214,1.0,4.0,62,0.00,,CLR,0.00,VWS V14.01,2013-04-03 10:55:00,
2013-04-03 07:00:00,27.9,16.6,30.06,SW,219,2.0,3.0,62,0.00,,CLR,0.00,VWS V14.01,2013-04-03 11:00:00,
2013-04-03 07:05:00,27.9,16.6,30.07,WSW,258,1.0,1.0,62,0.00,,CLR,0.00,VWS V14.01,2013-04-03 11:05:00,
2013-04-03 07:10:00,28.0,16.7,30.07,WSW,244,0.0,1.0,62,0.00,,CLR,0.00,VWS V14.01,2013-04-03 11:10:00,
2013-04-03 07:15:00,28.0,16.7,30.07,WSW,237,0.0,2.0,62,0.00,,CLR,0.00,VWS V14.01,2013-04-03 11:15:00,
2013-04-03 07:20:00,28.2,16.9,30.07,South,190,5.0,5.0,62,0.00,,CLR,0.00,VWS V14.01,2013-04-03 11:20:00,
2013-04-03 07:25:00,28.3,16.6,30.07,North,6,0.0,1.0,61,0.00,,CLR,0.00,VWS V14.01,2013-04-03 11:25:00,
2013-04-03 07:30:00,28.6,16.9,30.07,NW,309,0.0,7.0,61,0.00,,CLR,0.00,VWS V14.01,2013-04-03 11:30:00,
2013-04-03 07:35:00,28.9,16.8,30.07,SW,218,0.0,2.0,60,0.00,,CLR,0.00,VWS V14.01,2013-04-03 11:35:00,
2013-04-03 07:40:00,29.1,17.0,30.08,SW,216,3.0,5.0,60,0.00,,CLR,0.00,VWS V14.01,2013-04-03 11:40:00,
2013-04-03 07:45:00,29.4,16.9,30.08,WSW,241,0.0,0.0,59,0.00,,CLR,0.00,VWS V14.01,2013-04-03 11:45:00,
2013-04-03 07:50:00,29.6,17.0,30.08,SSW,207,1.0,5.0,59,0.00,,CLR,0.00,VWS V14.01,2013-04-03 11:50:00,
2013-04-03 07:55:00,29.8,17.2,30.08,SSW,208,0.0,4.0,59,0.00,,CLR,0.00,VWS V14.01,2013-04-03 11:55:00,
2013-04-03 08:00:00,30.3,17.7,30.08,SE,134,1.0,1.0,59,0.00,,CLR,0.00,VWS V14.01,2013-04-03 12:00:00,
2013-04-03 08:05:00,30.6,17.6,30.08,SSW,213,0.0,4.0,58,0.00,,CLR,0.00,VWS V14.01,2013-04-03 12:05:00,
2013-04-03 08:10:00,30.6,17.2,30.08,SSW,195,0.0,5.0,57,0.00,,CLR,0.00,VWS V14.01,2013-04-03 12:10:00,
2013-04-03 08:15:00,30.8,17.4,30.08,SSE,163,0.0,5.0,57,0.00,,CLR,0.00,VWS V14.01,2013-04-03 12:15:00,
2013-04-03 08:20:00,31.3,17.9,30.08,SE,143,0.0,2.0,57,0.00,,CLR,0.00,VWS V14.01,2013-04-03 12:20:00,
2013-04-03 08:25:00,31.4,17.5,30.08,ESE,123,1.0,8.0,56,0.00,,CLR,0.00,VWS V14.01,2013-04-03 12:25:00,
2013-04-03 08:30:00,31.6,17.7,30.08,SSE,159,0.0,2.0,56,0.00,,CLR,0.00,VWS V14.01,2013-04-03 12:30:00,
2013-04-03 08:35:00,32.0,18.1,30.08,ESE,121,0.0,0.0,56,0.00,,CLR,0.00,VWS V14.01,2013-04-03 12:35:00,
2013-04-03 08:40:00,32.1,17.8,30.08,East,101,1.0,4.0,55,0.00,,CLR,0.00,VWS V14.01,2013-04-03 12:40:00,
2013-04-03 08:45:00,32.4,17.6,30.07,SSW,196,0.0,2.0,54,0.00,,CLR,0.00,VWS V14.01,2013-04-03 12:45:00,
2013-04-03 08:50:00,32.6,17.4,30.07,SSE,158,0.0,4.0,53,0.00,,CLR,0.00,VWS V14.01,2013-04-03 12:50:00,
2013-04-03 08:55:00,33.1,18.3,30.07,SSW,208,5.0,6.0,54,0.00,,CLR,0.00,VWS V14.01,2013-04-03 12:55:00,
2013-04-03 09:00:00,32.7,17.0,30.08,SSW,206,1.0,5.0,52,0.00,,CLR,0.00,VWS V14.01,2013-04-03 13:00:00,
2013-04-03 09:05:00,33.2,17.5,30.08,SSE,149,0.0,8.0,52,0.00,,CLR,0.00,VWS V14.01,2013-04-03 13:05:00,
2013-04-03 09:10:00,33.7,17.5,30.08,SSW,195,4.0,11.0,51,0.00,,CLR,0.00,VWS V14.01,2013-04-03 13:10:00,
2013-04-03 09:15:00,33.4,16.8,30.08,SE,131,7.0,7.0,50,0.00,,CLR,0.00,VWS V14.01,2013-04-03 13:15:00,
2013-04-03 09:20:00,33.5,17.3,30.08,SE,125,11.0,11.0,51,0.00,,CLR,0.00,VWS V14.01,2013-04-03 13:20:00,
2013-04-03 09:25:00,33.6,17.0,30.08,SSE,156,1.0,4.0,50,0.00,,CLR,0.00,VWS V14.01,2013-04-03 13:25:00,
2013-04-03 09:30:00,34.1,17.0,30.08,ENE,77,5.0,12.0,49,0.00,,CLR,0.00,VWS V14.01,2013-04-03 13:30:00,
2013-04-03 09:35:00,34.1,16.5,30.08,SSE,152,0.0,8.0,48,0.00,,CLR,0.00,VWS V14.01,2013-04-03 13:35:00,
2013-04-03 09:40:00,34.1,16.5,30.08,South,172,2.0,11.0,48,0.00,,CLR,0.00,VWS V14.01,2013-04-03 13:40:00,
2013-04-03 09:45:00,34.6,16.5,30.08,SW,224,2.0,10.0,47,0.00,,CLR,0.00,VWS V14.01,2013-04-03 13:45:00,
2013-04-03 09:50:00,34.7,16.5,30.08,South,183,4.0,8.0,47,0.00,,CLR,0.00,VWS V14.01,2013-04-03 13:50:00,
2013-04-03 09:55:00,34.4,15.8,30.08,SSE,158,3.0,19.0,46,0.00,,CLR,0.00,VWS V14.01,2013-04-03 13:55:00,
2013-04-03 10:00:00,34.0,16.4,30.08,South,178,1.0,4.0,48,0.00,,CLR,0.00,VWS V14.01,2013-04-03 14:00:00,
2013-04-03 10:05:00,34.3,16.7,30.07,SSE,168,3.0,3.0,48,0.00,,SCT050,0.00,VWS V14.01,2013-04-03 14:05:00,
2013-04-03 10:10:00,34.7,16.5,30.08,SSW,195,5.0,8.0,47,0.00,,SCT050,0.00,VWS V14.01,2013-04-03 14:10:00,
2013-04-03 10:15:00,34.8,15.6,30.07,SE,136,0.0,8.0,45,0.00,,SCT050,0.00,VWS V14.01,2013-04-03 14:15:00,
2013-04-03 10:20:00,34.8,16.6,30.08,SSE,155,1.0,9.0,47,0.00,,SCT050,0.00,VWS V14.01,2013-04-03 14:20:00,
2013-04-03 10:25:00,34.8,16.6,30.08,North,353,1.0,15.0,47,0.00,,SCT050,0.00,VWS V14.01,2013-04-03 14:25:00,
2013-04-03 10:30:00,35.0,16.3,30.07,SSE,151,6.0,9.0,46,0.00,,SCT050,0.00,VWS V14.01,2013-04-03 14:30:00,
2013-04-03 10:35:00,35.1,16.9,30.07,SSE,157,5.0,9.0,47,0.00,,SCT050,0.00,VWS V14.01,2013-04-03 14:35:00,
2013-04-03 10:40:00,36.0,16.7,30.07,SSE,168,7.0,8.0,45,0.00,,SCT050,0.00,VWS V14.01,2013-04-03 14:40:00,
2013-04-03 10:45:00,35.7,15.9,30.07,SSE,158,3.0,9.0,44,0.00,,SCT050,0.00,VWS V14.01,2013-04-03 14:45:00,
2013-04-03 10:50:00,35.7,16.5,30.07,SW,229,7.0,8.0,45,0.00,,SCT050,0.00,VWS V14.01,2013-04-03 14:50:00,
2013-04-03 10:55:00,36.1,16.8,30.07,SE,145,3.0,5.0,45,0.00,,SCT050,0.00,VWS V14.01,2013-04-03 14:55:00,
2013-04-03 11:00:00,36.6,16.8,30.07,South,180,0.0,12.0,44,0.00,,SCT050,0.00,VWS V14.01,2013-04-03 15:00:00,
2013-04-03 11:05:00,36.2,16.4,30.07,SSE,161,5.0,14.0,44,0.00,,FEW050,0.00,VWS V14.01,2013-04-03 15:05:00,
2013-04-03 11:10:00,36.4,16.6,30.07,SSW,197,0.0,7.0,44,0.00,,FEW050,0.00,VWS V14.01,2013-04-03 15:10:00,
2013-04-03 11:15:00,36.8,17.0,30.07,SSW,204,3.0,5.0,44,0.00,,FEW050,0.00,VWS V14.01,2013-04-03 15:15:00,
2013-04-03 11:20:00,37.4,17.0,30.07,ESE,117,3.0,5.0,43,0.00,,FEW050,0.00,VWS V14.01,2013-04-03 15:20:00,
2013-04-03 11:25:00,38.0,17.0,30.07,SSE,157,2.0,5.0,42,0.00,,FEW050,0.00,VWS V14.01,2013-04-03 15:25:00,
2013-04-03 11:30:00,37.9,15.8,30.07,ESE,117,2.0,10.0,40,0.00,,FEW050,0.00,VWS V14.01,2013-04-03 15:30:00,
2013-04-03 11:35:00,38.3,16.1,30.07,SSE,148,6.0,9.0,40,0.00,,FEW050,0.00,VWS V14.01,2013-04-03 15:35:00,
2013-04-03 11:40:00,38.4,16.8,30.07,ESE,109,7.0,12.0,41,0.00,,FEW050,0.00,VWS V14.01,2013-04-03 15:40:00,
2013-04-03 11:45:00,38.5,16.9,30.07,SSW,198,3.0,12.0,41,0.00,,FEW050,0.00,VWS V14.01,2013-04-03 15:45:00,
2013-04-03 11:50:00,38.8,17.1,30.07,SSW,203,4.0,11.0,41,0.00,,FEW050,0.00,VWS V14.01,2013-04-03 15:50:00,
2013-04-03 11:55:00,38.7,17.6,30.07,NNE,25,2.0,6.0,42,0.00,,FEW050,0.00,VWS V14.01,2013-04-03 15:55:00,
2013-04-03 12:00:00,38.4,16.8,30.07,SE,146,1.0,9.0,41,0.00,,FEW050,0.00,VWS V14.01,2013-04-03 16:00:00,
2013-04-03 12:05:00,37.9,15.8,30.06,SSE,148,6.0,12.0,40,0.00,,FEW050,0.00,VWS V14.01,2013-04-03 16:05:00,
2013-04-03 12:10:00,38.4,16.8,30.06,SSE,151,3.0,10.0,41,0.00,,FEW050,0.00,VWS V14.01,2013-04-03 16:10:00,
2013-04-03 12:15:00,39.2,16.9,30.06,South,176,2.0,6.0,40,0.00,,FEW050,0.00,VWS V14.01,2013-04-03 16:15:00,
2013-04-03 12:20:00,40.1,15.9,30.06,South,182,5.0,12.0,37,0.00,,FEW050,0.00,VWS V14.01,2013-04-03 16:20:00,
2013-04-03 12:25:00,39.8,15.7,30.06,East,92,2.0,6.0,37,0.00,,FEW050,0.00,VWS V14.01,2013-04-03 16:25:00,
2013-04-03 12:30:00,40.2,17.2,30.06,ESE,112,4.0,7.0,39,0.00,,FEW050,0.00,VWS V14.01,2013-04-03 16:30:00,
2013-04-03 12:35:00,40.2,16.0,30.06,ESE,122,8.0,8.0,37,0.00,,FEW050,0.00,VWS V14.01,2013-04-03 16:35:00,
2013-04-03 12:40:00,40.0,15.9,30.06,SSW,201,3.0,11.0,37,0.00,,FEW050,0.00,VWS V14.01,2013-04-03 16:40:00,
2013-04-03 12:45:00,40.5,16.9,30.06,NNW,337,2.0,4.0,38,0.00,,FEW050,0.00,VWS V14.01,2013-04-03 16:45:00,
2013-04-03 12:50:00,40.3,16.1,30.06,SSE,164,4.0,12.0,37,0.00,,FEW050,0.00,VWS V14.01,2013-04-03 16:50:00,
2013-04-03 12:55:00,40.2,16.0,30.06,South,170,2.0,4.0,37,0.00,,FEW050,0.00,VWS V14.01,2013-04-03 16:55:00,
2013-04-03 13:00:00,40.2,16.6,30.06,South,175,0.0,4.0,38,0.00,,FEW050,0.00,VWS V14.01,2013-04-03 17:00:00,
2013-04-03 13:05:00,40.4,16.2,30.05,NNE,25,0.0,9.0,37,0.00,,FEW060,0.00,VWS V14.01,2013-04-03 17:05:00,
2013-04-03 13:10:00,41.2,16.9,30.05,South,191,6.0,10.0,37,0.00,,FEW060,0.00,VWS V14.01,2013-04-03 17:10:00,
2013-04-03 13:15:00,41.5,16.5,30.05,SE,143,2.0,5.0,36,0.00,,FEW060,0.00,VWS V14.01,2013-04-03 17:15:00,
2013-04-03 13:20:00,42.0,17.0,30.05,South,170,7.0,7.0,36,0.00,,FEW060,0.00,VWS V14.01,2013-04-03 17:20:00,
2013-04-03 13:25:00,41.8,16.8,30.05,SSE,161,1.0,6.0,36,0.00,,FEW060,0.00,VWS V14.01,2013-04-03 17:25:00,
2013-04-03 13:30:00,42.7,18.3,30.05,SSE,157,1.0,4.0,37,0.00,,FEW060,0.00,VWS V14.01,2013-04-03 17:30:00,
2013-04-03 13:35:00,42.9,16.5,30.05,ENE,69,8.0,8.0,34,0.00,,FEW060,0.00,VWS V14.01,2013-04-03 17:35:00,
2013-04-03 13:40:00,42.0,16.4,30.05,SW,234,2.0,11.0,35,0.00,,FEW060,0.00,VWS V14.01,2013-04-03 17:40:00,
2013-04-03 13:45:00,41.8,14.8,30.06,SE,139,4.0,8.0,33,0.00,,FEW060,0.00,VWS V14.01,2013-04-03 17:45:00,
2013-04-03 13:50:00,41.1,14.9,30.06,SSE,155,1.0,10.0,34,0.00,,FEW060,0.00,VWS V14.01,2013-04-03 17:50:00,
2013-04-03 13:55:00,41.3,15.1,30.04,SSW,205,0.0,7.0,34,0.00,,FEW060,0.00,VWS V14.01,2013-04-03 17:55:00,
2013-04-03 14:00:00,42.6,16.9,30.05,ESE,118,1.0,5.0,35,0.00,,FEW060,0.00,VWS V14.01,2013-04-03 18:00:00,
2013-04-03 14:05:00,42.6,15.5,30.04,SSE,160,2.0,8.0,33,0.00,,FEW060,0.00,VWS V14.01,2013-04-03 18:05:00,
2013-04-03 14:10:00,42.4,16.0,30.05,SSE,158,10.0,11.0,34,0.00,,FEW060,0.00,VWS V14.01,2013-04-03 18:10:00,
2013-04-03 14:15:00,42.2,14.5,30.05,ESE,115,4.0,6.0,32,0.00,,FEW060,0.00,VWS V14.01,2013-04-03 18:15:00,
2013-04-03 14:20:00,42.2,15.2,30.04,SSW,192,1.0,2.0,33,0.00,,FEW060,0.00,VWS V14.01,2013-04-03 18:20:00,
2013-04-03 14:25:00,43.2,16.1,30.04,ESE,104,3.0,8.0,33,0.00,,FEW060,0.00,VWS V14.01,2013-04-03 18:25:00,
2013-04-03 14:30:00,42.8,15.7,30.04,SSW,199,6.0,7.0,33,0.00,,FEW060,0.00,VWS V14.01,2013-04-03 18:30:00,
2013-04-03 14:35:00,42.8,15.7,30.03,NNE,30,4.0,10.0,33,0.00,,FEW060,0.00,VWS V14.01,2013-04-03 18:35:00,
2013-04-03 14:40:00,42.6,15.5,30.03,SSW,194,6.0,9.0,33,0.00,,FEW060,0.00,VWS V14.01,2013-04-03 18:40:00,
2013-04-03 14:45:00,43.3,15.4,30.03,ENE,69,8.0,14.0,32,0.00,,FEW060,0.00,VWS V14.01,2013-04-03 18:45:00,
2013-04-03 14:50:00,42.6,14.8,30.03,SSE,161,6.0,7.0,32,0.00,,FEW060,0.00,VWS V14.01,2013-04-03 18:50:00,
2013-04-03 14:55:00,42.3,15.3,30.03,SSE,166,10.0,10.0,33,0.00,,FEW060,0.00,VWS V14.01,2013-04-03 18:55:00,
2013-04-03 15:00:00,42.3,14.6,30.03,South,173,9.0,9.0,32,0.00,,FEW060,0.00,VWS V14.01,2013-04-03 19:00:00,
2013-04-03 15:05:00,42.6,14.8,30.03,SSW,199,7.0,18.0,32,0.00,,CLR,0.00,VWS V14.01,2013-04-03 19:05:00,
2013-04-03 15:10:00,43.3,16.1,30.02,South,178,0.0,7.0,33,0.00,,CLR,0.00,VWS V14.01,2013-04-03 19:10:00,
2013-04-03 15:15:00,43.3,14.0,30.02,SSW,201,9.0,15.0,30,0.00,,CLR,0.00,VWS V14.01,2013-04-03 19:15:00,
2013-04-03 15:20:00,43.6,15.0,30.03,East,83,8.0,8.0,31,0.00,,CLR,0.00,VWS V14.01,2013-04-03 19:20:00,
2013-04-03 15:25:00,43.5,14.1,30.04,South,187,3.0,5.0,30,0.00,,CLR,0.00,VWS V14.01,2013-04-03 19:25:00,
2013-04-03 15:30:00,42.9,15.1,30.03,South,172,6.0,14.0,32,0.00,,CLR,0.00,VWS V14.01,2013-04-03 19:30:00,
2013-04-03 15:35:00,43.0,14.4,30.03,ENE,61,4.0,8.0,31,0.00,,CLR,0.00,VWS V14.01,2013-04-03 19:35:00,
2013-04-03 15:40:00,42.9,14.4,30.03,ENE,69,5.0,8.0,31,0.00,,CLR,0.00,VWS V14.01,2013-04-03 19:40:00,
2013-04-03 15:45:00,43.4,15.5,30.03,SE,143,6.0,12.0,32,0.00,,CLR,0.00,VWS V14.01,2013-04-03 19:45:00,
2013-04-03 15:50:00,43.6,15.0,30.02,SSE,157,1.0,7.0,31,0.00,,CLR,0.00,VWS V14.01,2013-04-03 19:50:00,
2013-04-03 15:56:00,43.8,14.4,30.03,SSE,158,6.0,12.0,30,0.00,,CLR,0.00,VWS V14.01,2013-04-03 19:56:00,
2013-04-03 16:01:00,43.6,14.2,30.03,WSW,258,5.0,6.0,30,0.00,,CLR,0.00,VWS V14.01,2013-04-03 20:01:00,
2013-04-03 16:06:00,43.9,14.5,30.03,South,172,7.0,14.0,30,0.00,,CLR,0.00,VWS V14.01,2013-04-03 20:06:00,
2013-04-03 16:11:00,43.3,14.0,30.03,SE,141,1.0,9.0,30,0.00,,CLR,0.00,VWS V14.01,2013-04-03 20:11:00,
2013-04-03 16:16:00,43.6,15.7,30.03,SE,134,5.0,5.0,32,0.00,,CLR,0.00,VWS V14.01,2013-04-03 20:16:00,
2013-04-03 16:21:00,44.0,13.8,30.03,SE,135,4.0,9.0,29,0.00,,CLR,0.00,VWS V14.01,2013-04-03 20:21:00,
2013-04-03 16:26:00,43.6,13.5,30.03,SE,136,5.0,8.0,29,0.00,,CLR,0.00,VWS V14.01,2013-04-03 20:26:00,
2013-04-03 16:31:00,43.5,14.9,30.03,SSW,208,4.0,15.0,31,0.00,,CLR,0.00,VWS V14.01,2013-04-03 20:31:00,
2013-04-03 16:36:00,43.5,14.1,30.03,ESE,107,6.0,11.0,30,0.00,,CLR,0.00,VWS V14.01,2013-04-03 20:36:00,
2013-04-03 16:41:00,43.3,14.7,30.03,NNW,341,3.0,10.0,31,0.00,,CLR,0.00,VWS V14.01,2013-04-03 20:41:00,
2013-04-03 16:46:00,43.5,14.1,30.03,South,179,7.0,11.0,30,0.00,,CLR,0.00,VWS V14.01,2013-04-03 20:46:00,
2013-04-03 16:51:00,43.7,14.3,30.03,South,171,2.0,7.0,30,0.00,,CLR,0.00,VWS V14.01,2013-04-03 20:51:00,
2013-04-03 16:56:00,43.7,13.5,30.03,South,173,16.0,16.0,29,0.00,,CLR,0.00,VWS V14.01,2013-04-03 20:56:00,
2013-04-03 17:01:00,43.2,13.1,30.04,NE,53,7.0,13.0,29,0.00,,CLR,0.00,VWS V14.01,2013-04-03 21:01:00,
2013-04-03 17:06:00,43.3,14.0,30.04,South,177,7.0,9.0,30,0.00,,CLR,0.00,VWS V14.01,2013-04-03 21:06:00,
2013-04-03 17:11:00,43.2,13.9,30.05,East,80,5.0,11.0,30,0.00,,CLR,0.00,VWS V14.01,2013-04-03 21:11:00,
2013-04-03 17:16:00,43.2,14.6,30.04,SE,130,4.0,4.0,31,0.00,,CLR,0.00,VWS V14.01,2013-04-03 21:16:00,
2013-04-03 17:21:00,43.0,14.4,30.04,SSE,149,2.0,5.0,31,0.00,,CLR,0.00,VWS V14.01,2013-04-03 21:21:00,
2013-04-03 17:26:00,43.0,15.2,30.05,South,187,9.0,9.0,32,0.00,,CLR,0.00,VWS V14.01,2013-04-03 21:26:00,
2013-04-03 17:31:00,42.9,14.4,30.04,East,93,6.0,7.0,31,0.00,,CLR,0.00,VWS V14.01,2013-04-03 21:31:00,
2013-04-03 17:36:00,42.7,14.9,30.05,SE,142,7.0,9.0,32,0.00,,CLR,0.00,VWS V14.01,2013-04-03 21:36:00,
2013-04-03 17:41:00,42.6,15.5,30.05,South,178,3.0,7.0,33,0.00,,CLR,0.00,VWS V14.01,2013-04-03 21:41:00,
2013-04-03 17:46:00,42.6,14.8,30.05,SSE,167,0.0,6.0,32,0.00,,CLR,0.00,VWS V14.01,2013-04-03 21:46:00,
2013-04-03 17:51:00,42.3,14.6,30.06,ENE,75,3.0,13.0,32,0.00,,CLR,0.00,VWS V14.01,2013-04-03 21:51:00,
2013-04-03 17:57:00,42.0,15.0,30.06,SSE,156,4.0,11.0,33,0.00,,CLR,0.00,VWS V14.01,2013-04-03 21:57:00,
2013-04-03 18:02:00,41.8,14.8,30.06,East,96,1.0,6.0,33,0.00,,CLR,0.00,VWS V14.01,2013-04-03 22:02:00,
2013-04-03 18:07:00,41.6,15.3,30.06,SE,146,0.0,9.0,34,0.00,,CLR,0.00,VWS V14.01,2013-04-03 22:07:00,
2013-04-03 18:12:00,41.3,15.1,30.06,SE,135,6.0,14.0,34,0.00,,CLR,0.00,VWS V14.01,2013-04-03 22:12:00,
2013-04-03 18:17:00,41.1,14.2,30.06,WSW,251,3.0,6.0,33,0.00,,CLR,0.00,VWS V14.01,2013-04-03 22:17:00,
2013-04-03 18:22:00,40.9,14.0,30.07,North,355,8.0,11.0,33,0.00,,CLR,0.00,VWS V14.01,2013-04-03 22:22:00,
2013-04-03 18:27:00,40.6,13.8,30.07,NW,325,19.0,19.0,33,0.00,,CLR,0.00,VWS V14.01,2013-04-03 22:27:00,
2013-04-03 18:32:00,40.3,13.5,30.08,NW,316,3.0,4.0,33,0.00,,CLR,0.00,VWS V14.01,2013-04-03 22:32:00,
2013-04-03 18:37:00,40.2,14.8,30.09,NW,319,8.0,10.0,35,0.00,,CLR,0.00,VWS V14.01,2013-04-03 22:37:00,
2013-04-03 18:42:00,39.9,15.1,30.08,NW,322,2.0,15.0,36,0.00,,CLR,0.00,VWS V14.01,2013-04-03 22:42:00,
2013-04-03 18:47:00,39.7,14.9,30.09,NNE,23,7.0,9.0,36,0.00,,CLR,0.00,VWS V14.01,2013-04-03 22:47:00,
2013-04-03 18:52:00,39.5,14.1,30.09,NNW,336,9.0,11.0,35,0.00,,CLR,0.00,VWS V14.01,2013-04-03 22:52:00,
2013-04-03 18:57:00,39.4,14.0,30.10,NNW,330,2.0,9.0,35,0.00,,CLR,0.00,VWS V14.01,2013-04-03 22:57:00,
2013-04-03 19:02:00,39.1,14.4,30.10,WNW,282,8.0,8.0,36,0.00,,CLR,0.00,VWS V14.01,2013-04-03 23:02:00,
2013-04-03 19:07:00,38.9,14.2,30.10,WNW,290,3.0,5.0,36,0.00,,CLR,0.00,VWS V14.01,2013-04-03 23:07:00,
2013-04-03 19:12:00,38.8,14.8,30.10,WNW,283,1.0,10.0,37,0.00,,CLR,0.00,VWS V14.01,2013-04-03 23:12:00,
2013-04-03 19:17:00,38.5,14.5,30.10,NW,305,7.0,7.0,37,0.00,,CLR,0.00,VWS V14.01,2013-04-03 23:17:00,
2013-04-03 19:22:00,38.4,13.8,30.11,NW,314,8.0,9.0,36,0.00,,CLR,0.00,VWS V14.01,2013-04-03 23:22:00,
2013-04-03 19:27:00,38.1,14.8,30.11,North,10,4.0,10.0,38,0.00,,CLR,0.00,VWS V14.01,2013-04-03 23:27:00,
2013-04-03 19:32:00,37.8,15.1,30.11,NW,313,5.0,8.0,39,0.00,,CLR,0.00,VWS V14.01,2013-04-03 23:32:00,
2013-04-03 19:37:00,37.7,15.6,30.11,South,169,2.0,4.0,40,0.00,,CLR,0.00,VWS V14.01,2013-04-03 23:37:00,
2013-04-03 19:42:00,37.4,15.3,30.12,NNW,328,3.0,8.0,40,0.00,,CLR,0.00,VWS V14.01,2013-04-03 23:42:00,
2013-04-03 19:47:00,37.2,15.1,30.12,NW,304,5.0,5.0,40,0.00,,CLR,0.00,VWS V14.01,2013-04-03 23:47:00,
2013-04-03 19:52:00,37.0,14.9,30.13,NNW,337,6.0,6.0,40,0.00,,CLR,0.00,VWS V14.01,2013-04-03 23:52:00,
2013-04-03 19:57:00,36.8,14.8,30.13,WNW,285,0.0,0.0,40,0.00,,CLR,0.00,VWS V14.01,2013-04-03 23:57:00,
2013-04-03 20:02:00,36.7,15.2,30.14,NNW,339,0.0,10.0,41,0.00,,CLR,0.00,VWS V14.01,2013-04-04 00:02:00,
2013-04-03 20:07:00,36.4,15.0,30.14,WNW,289,0.0,2.0,41,0.00,,CLR,0.00,VWS V14.01,2013-04-04 00:07:00,
2013-04-03 20:12:00,36.2,15.3,30.15,NNW,337,0.0,3.0,42,0.00,,CLR,0.00,VWS V14.01,2013-04-04 00:12:00,
2013-04-03 20:17:00,36.0,15.1,30.15,North,3,2.0,3.0,42,0.00,,CLR,0.00,VWS V14.01,2013-04-04 00:17:00,
2013-04-03 20:22:00,35.8,15.5,30.15,NNE,15,3.0,6.0,43,0.00,,CLR,0.00,VWS V14.01,2013-04-04 00:22:00,
2013-04-03 20:27:00,35.8,15.5,30.16,NNE,14,2.0,4.0,43,0.00,,CLR,0.00,VWS V14.01,2013-04-04 00:27:00,
2013-04-03 20:32:00,35.8,15.5,30.16,WNW,293,2.0,4.0,43,0.00,,CLR,0.00,VWS V14.01,2013-04-04 00:32:00,
2013-04-03 20:37:00,35.7,15.9,30.16,NNE,13,0.0,2.0,44,0.00,,CLR,0.00,VWS V14.01,2013-04-04 00:37:00,
2013-04-03 20:42:00,35.4,16.2,30.17,WNW,289,0.0,1.0,45,0.00,,CLR,0.00,VWS V14.01,2013-04-04 00:42:00,
2013-04-03 20:47:00,35.2,16.0,30.17,WSW,255,1.0,3.0,45,0.00,,CLR,0.00,VWS V14.01,2013-04-04 00:47:00,
2013-04-03 20:52:00,35.2,16.0,30.17,NW,310,3.0,7.0,45,0.00,,CLR,0.00,VWS V14.01,2013-04-04 00:52:00,
2013-04-03 20:57:00,35.1,15.9,30.18,NNW,329,1.0,1.0,45,0.00,,CLR,0.00,VWS V14.01,2013-04-04 00:57:00,
2013-04-03 21:02:00,35.0,16.3,30.18,West,272,3.0,6.0,46,0.00,,CLR,0.00,VWS V14.01,2013-04-04 01:02:00,
2013-04-03 21:07:00,34.7,15.6,30.18,NNW,345,2.0,2.0,45,0.00,,CLR,0.00,VWS V14.01,2013-04-04 01:07:00,
2013-04-03 21:12:00,34.7,15.6,30.19,West,281,0.0,3.0,45,0.00,,CLR,0.00,VWS V14.01,2013-04-04 01:12:00,
2013-04-03 21:17:00,34.6,16.0,30.19,NNW,337,0.0,4.0,46,0.00,,CLR,0.00,VWS V14.01,2013-04-04 01:17:00,
2013-04-03 21:22:00,34.6,16.0,30.19,North,1,1.0,8.0,46,0.00,,CLR,0.00,VWS V14.01,2013-04-04 01:22:00,
2013-04-03 21:27:00,34.3,16.2,30.19,NNW,328,2.0,2.0,47,0.00,,CLR,0.00,VWS V14.01,2013-04-04 01:27:00,
2013-04-03 21:32:00,34.2,15.6,30.19,NW,312,0.0,4.0,46,0.00,,CLR,0.00,VWS V14.01,2013-04-04 01:32:00,
2013-04-03 21:37:00,34.0,15.4,30.19,NW,310,0.0,1.0,46,0.00,,CLR,0.00,VWS V14.01,2013-04-04 01:37:00,
2013-04-03 21:42:00,33.9,15.8,30.20,WNW,290,0.0,0.0,47,0.00,,CLR,0.00,VWS V14.01,2013-04-04 01:42:00,
2013-04-03 21:47:00,33.6,16.0,30.19,North,351,2.0,9.0,48,0.00,,CLR,0.00,VWS V14.01,2013-04-04 01:47:00,
2013-04-03 21:52:00,33.4,16.3,30.20,NNW,330,3.0,4.0,49,0.00,,CLR,0.00,VWS V14.01,2013-04-04 01:52:00,
2013-04-03 21:57:00,33.4,16.3,30.20,NW,314,5.0,5.0,49,0.00,,CLR,0.00,VWS V14.01,2013-04-04 01:57:00,
2013-04-03 22:02:00,33.4,15.8,30.20,NE,34,6.0,8.0,48,0.00,,CLR,0.00,VWS V14.01,2013-04-04 02:02:00,
2013-04-03 22:07:00,33.4,15.8,30.20,West,269,1.0,10.0,48,0.00,,CLR,0.00,VWS V14.01,2013-04-04 02:07:00,
2013-04-03 22:12:00,33.4,16.3,30.20,NW,324,3.0,17.0,49,0.00,,CLR,0.00,VWS V14.01,2013-04-04 02:12:00,
2013-04-03 22:17:00,33.3,15.7,30.19,WNW,283,0.0,6.0,48,0.00,,CLR,0.00,VWS V14.01,2013-04-04 02:17:00,
2013-04-03 22:22:00,33.2,16.1,30.19,SW,217,3.0,10.0,49,0.00,,CLR,0.00,VWS V14.01,2013-04-04 02:22:00,
2013-04-03 22:27:00,33.2,16.1,30.19,NNE,17,6.0,10.0,49,0.00,,CLR,0.00,VWS V14.01,2013-04-04 02:27:00,
2013-04-03 22:32:00,33.0,15.5,30.20,NNW,342,4.0,9.0,48,0.00,,CLR,0.00,VWS V14.01,2013-04-04 02:32:00,
2013-04-03 22:37:00,32.8,15.3,30.21,NNW,328,1.0,5.0,48,0.00,,CLR,0.00,VWS V14.01,2013-04-04 02:37:00,
2013-04-03 22:42:00,32.6,15.6,30.22,WSW,258,1.0,2.0,49,0.00,,CLR,0.00,VWS V14.01,2013-04-04 02:42:00,
2013-04-03 22:47:00,32.5,15.9,30.22,West,259,0.0,5.0,50,0.00,,CLR,0.00,VWS V14.01,2013-04-04 02:47:00,
2013-04-03 22:52:00,32.3,15.8,30.22,WNW,297,1.0,2.0,50,0.00,,CLR,0.00,VWS V14.01,2013-04-04 02:52:00,
2013-04-03 22:57:00,32.2,15.7,30.22,WNW,301,3.0,13.0,50,0.00,,CLR,0.00,VWS V14.01,2013-04-04 02:57:00,
2013-04-03 23:02:00,32.2,15.7,30.22,NW,323,8.0,8.0,50,0.00,,CLR,0.00,VWS V14.01,2013-04-04 03:02:00,
2013-04-03 23:07:00,32.2,15.7,30.22,NW,317,1.0,6.0,50,0.00,,CLR,0.00,VWS V14.01,2013-04-04 03:07:00,
2013-04-03 23:12:00,32.0,15.5,30.22,NNW,334,0.0,6.0,50,0.00,,CLR,0.00,VWS V14.01,2013-04-04 03:12:00,
2013-04-03 23:17:00,31.9,15.8,30.23,WNW,294,4.0,5.0,51,0.00,,CLR,0.00,VWS V14.01,2013-04-04 03:17:00,
2013-04-03 23:22:00,31.9,15.8,30.23,NW,310,6.0,11.0,51,0.00,,CLR,0.00,VWS V14.01,2013-04-04 03:22:00,
2013-04-03 23:27:00,31.7,15.7,30.23,NW,322,1.0,6.0,51,0.00,,CLR,0.00,VWS V14.01,2013-04-04 03:27:00,
2013-04-03 23:32:00,31.7,15.7,30.22,SW,231,3.0,8.0,51,0.00,,CLR,0.00,VWS V14.01,2013-04-04 03:32:00,
2013-04-03 23:37:00,31.9,15.4,30.23,NW,322,2.0,10.0,50,0.00,,CLR,0.00,VWS V14.01,2013-04-04 03:37:00,
2013-04-03 23:42:00,31.9,15.8,30.23,NW,306,6.0,8.0,51,0.00,,CLR,0.00,VWS V14.01,2013-04-04 03:42:00,
2013-04-03 23:47:00,31.7,15.7,30.23,West,259,0.0,8.0,51,0.00,,CLR,0.00,VWS V14.01,2013-04-04 03:47:00,
2013-04-03 23:52:00,31.6,15.6,30.23,NNW,346,0.0,2.0,51,0.00,,CLR,0.00,VWS V14.01,2013-04-04 03:52:00,
2013-04-03 23:57:00,31.6,16.0,30.23,North,358,0.0,2.0,52,0.00,,CLR,0.00,VWS V14.01,2013-04-04 03:57:00,